Regional Weather Roundup
Issued by NWS

Home | Current Version | Previous Version | Graphics & Text | Print | Product List | Glossary On
Versions: 1 2 3 4 5 6 7 8 9 10 11 12 13 14 15 16 17 18 19 20 21 22 23 24 25 26 27 28 29 30 31 32 33 34 35 36 37 38 39 40 41 42 43 44 45 46 47 48 49 50
252
ASUS45 KCYS 191910
RWRWY

WYOMING REGIONAL WEATHER ROUNDUP
NATIONAL WEATHER SERVICE CHEYENNE WY
1200 PM MST SUN FEB 19 2017

NOTE:  "FAIR" INDICATES FEW OR NO CLOUDS BELOW 12,000 FEET
WITH NO SIGNIFICANT WEATHER AND/OR OBSTRUCTIONS TO VISIBILITY.

WYZ001-192000-
YELLOWSTONE NATIONAL PARK

CITY           SKY/WX    TMP DP  RH WIND       PRES   REMARKS
LK YELLOWSTONE   N/A     32  29  88 VRB3      29.63R
W YELLOWSTONE  NOT AVBL

$$
WYZ002>013-054>058-071-098>099-192000-
NORTHERN WYOMING

CITY           SKY/WX    TMP DP  RH WIND       PRES   REMARKS
JACKSON        PTSUNNY   36  34  93 S10       29.64R WCI  28
CODY           FAIR      52  25  35 W13G20    29.51S
GREYBULL       FAIR      49  34  56 CALM      29.50S
WORLAND        FAIR      48  36  63 S7        29.48F
SHERIDAN       FAIR      45  31  58 VRB5      29.41F
BUFFALO        FAIR      62  28  27 S18G25    29.45F
GILLETTE       FAIR      58  33  39 SW35G44   29.46S
HULETT         FAIR      59  32  36 SW21G29   29.50F
NEWCASTLE      FAIR      55  30  38 SE14      29.57F

$$
WYZ014>020-022>026-101>103-192000-
CENTRAL WYOMING

CITY           SKY/WX    TMP DP  RH WIND       PRES   REMARKS
BIG PINEY      FAIR      34  32  92 S13       29.65S WCI  25
PINEDALE       MOCLDY    34  32  93 SE6       29.66F WCI  29
DUBOIS         CLOUDY    32  32 100 NW7       29.60R WCI  26
LANDER         FAIR      47  32  56 S6G22     29.55R
RIVERTON       FAIR      42  32  67 NW3       29.55S
CASPER         FAIR      55  31  39 SW22G29   29.58S
DOUGLAS        FAIR      58  28  32 SW20G30   29.59S

$$
WYZ021-027>030-104>119-192000-
SOUTHERN WYOMING

CITY           SKY/WX    TMP DP  RH WIND       PRES   REMARKS
EVANSTON       FOG       33  31  92 SW12      29.70R VSB 1/4 WCI  24
KEMMERER         N/A     36  32  87 SW16      29.68S WCI  26
FORT BRIDGER   CLOUDY    37  36  97 W16       29.72S WCI  27
ROCK SPRINGS   CLOUDY    39  30  70 W16       29.69R WCI  30
DIXON            N/A     47  31  53 SW15      29.73S
RAWLINS        FAIR      46  30  53 S21G28    29.68R
SARATOGA       MOCLDY    46  28  49 SE10G17   29.69F
LARAMIE        CLOUDY    47  25  42 W12       29.69F
CHEYENNE       FAIR      53  26  35 SE8       29.68F
TORRINGTON     FAIR      59  31  34 SE9       29.62F
PINE BLUFFS    FAIR      59  28  31 S9G16     29.66F

$$




USA.gov is the U.S. government's official web portal to all federal, state and local government web resources and services.